Regional Weather Roundup
Issued by NWS Sioux Falls, SD

Home | Current Version | Previous Version | Text Only | Print | Product List | Glossary On
Versions: 1 2 3 4 5 6 7 8 9 10 11 12 13 14 15 16 17 18 19 20 21 22 23 24 25 26 27 28 29 30 31 32 33 34 35 36 37 38 39 40 41 42 43 44 45 46 47 48 49 50
000
ASUS43 KFSD 261210
RWRFSD

WEATHER ROUNDUP FOR SE SOUTH DAKOTA/SW MINNESOTA/NW IOWA
NATIONAL WEATHER SERVICE SIOUX FALLS SD
700 AM CDT FRI AUG 26 2016

NOTE: "FAIR" INDICATES FEW OR NO CLOUDS BELOW 12,000 FEET WITH NO
SIGNIFICANT WEATHER AND OR OBSTRUCTIONS TO VISIBILITY.


SDZ038>040-050-052>070-261300-
SOUTHEAST SOUTH DAKOTA

CITY           SKY/WX    TMP DP  RH WIND       PRES   REMARKS
BROOKINGS      CLEAR     46  45  96 CALM      30.19R
CHAMBERLAIN    CLEAR     49  48  95 CALM      30.17S
6HR MIN TEMP:  47; 6HR MAX TEMP:  55;

HURON          CLEAR     45  43  93 CALM      30.17S
6HR MIN TEMP:  45; 6HR MAX TEMP:  53;

MADISON        FAIR      46  46 100 CALM      30.20R
MITCHELL       FOG       48  47  96 CALM      30.19R VSB 3/4
6HR MIN TEMP:  48; 6HR MAX TEMP:  57;

SIOUX FALLS    CLOUDY    49  49 100 NE5       30.19R
6HR MIN TEMP:  49; 6HR MAX TEMP:  55;

WINNER         CLOUDY    57  52  83 CALM      30.18R
YANKTON        PTCLDY    52  46  82 CALM      30.17R
$$

MNZ071-072-080-081-089-090-097-098-261300-
SOUTHWEST MINNESOTA

CITY           SKY/WX    TMP DP  RH WIND       PRES   REMARKS
FAIRMONT       CLOUDY    52  51  97 CALM      30.20R
JACKSON        PTCLDY    50  48  93 CALM      30.20R FOG
LUVERNE        CLOUDY    50  46  87 CALM      30.20R
MARSHALL       CLEAR     49  48  97 SW5       30.18R
6HR MIN TEMP:  49; 6HR MAX TEMP:  53;

MONTEVIDEO     CLEAR     52  50  93 CALM      30.18S
REDWOOD FALLS  CLEAR     51  48  89 CALM      30.18R
TRACY          CLOUDY    53  51  92 S5        30.19R
WINDOM         CLOUDY    52  50  93 CALM      30.20R
WORTHINGTON    CLOUDY    50  49  96 CALM      30.20R
$$

IAZ001>003-012>014-020>022-031-032-NEZ013-014-SDZ071-261300-
NORTHWEST IOWA

CITY           SKY/WX    TMP DP  RH WIND       PRES   REMARKS
CHEROKEE       CLOUDY    53  53 100 CALM      30.19R
DENISON        CLOUDY    55  55 100 CALM      30.17R FOG
ESTHERVILLE    CLOUDY    50  50 100 CALM      30.19R
LE MARS        CLOUDY    52  52 100 CALM      30.20R
ORANGE CITY    CLOUDY    55  54  94 CALM      30.19R
SHELDON        PTCLDY    50  50 100 E3        30.17R
SIOUX CITY     CLOUDY    55  53  93 CALM      30.18R
6HR MIN TEMP:  54; 6HR MAX TEMP:  60;

SPENCER        CLOUDY    50  49  96 SE3       30.20R
6HR MIN TEMP:  49; 6HR MAX TEMP:  55;

STORM LAKE     PTCLDY    55  55 100 E3        30.20R
$$

ABBREVIATIONS USED IN REMARKS
   TC - TEMPERATURE IN CELSIUS
  WCI - WIND CHILL INDEX
   HX - HEAT INDEX
  VSB - VISIBILITY




USA.gov is the U.S. government's official web portal to all federal, state and local government web resources and services.